Preview of NWS' New Version of Forecast
This preview is not operational and should not be used for support decisions.

Regional Weather Roundup (RWR)

Issued by National Weather Service (NWS)

                            
000
ASUS45 KBOU 211110
RWRCO 

WEATHER ROUNDUP FOR COLORADO
NATIONAL WEATHER SERVICE DENVER/BOULDER CO
400 AM MST THU FEB 21 2019

NOTE: "FAIR" INDICATES FEW OR NO CLOUDS BELOW 12000 FEET WITH NO
SIGNIFICANT WEATHER AND/OR OBSTRUCTIONS TO VISIBILITY.

COZ001>005-013-030-031-211200-
...NORTHWEST COLORADO...
  
CITY           SKY/WX    TMP DP  RH WIND       PRES   REMARKS
CRAIG          CLOUDY    15   7  70 NE12      29.64F WCI   2          
HAYDEN         FAIR      11   4  73 E12       29.64F WCI  -3          
MEEKER         CLOUDY    18  11  74 CALM      29.61S                  
RANGELY        CLOUDY    18  14  85 SE6       29.65S WCI  10          
RABBIT EARS PA PTSUNNY  N/A N/A N/A S6        29.50F                  
STEAMBOAT SPGS CLOUDY     6   2  86 CALM      29.63F                  
WALDEN         FAIR       0  -8  71 E3        29.62S                  
$$

COZ006>008-011-211200-
...WEST CENTRAL VALLEYS...
  
CITY           SKY/WX    TMP DP  RH WIND       PRES   REMARKS
GRAND JUNCTION CLOUDY    27  21  78 E7        29.64F WCI  19          
MONTROSE       CLOUDY    23  18  81 NW3       29.64F                  
EAGLE          CLOUDY    12   6  77 E5        29.68F WCI   4          
RIFLE          LGT SNOW  20  18  92 E3        29.65F FOG              
DELTA          LGT SNOW  27  24  91 E3        29.65S                  
NUCLA          CLOUDY    23  21  93 SE3       29.64S                  
$$

COZ017>023-064>068-211200-
...SOUTHWEST COLORADO...
  
CITY           SKY/WX    TMP DP  RH WIND       PRES   REMARKS
DURANGO        LGT SNOW  19  18  95 E7        29.65F FOG     WCI  10  
CORTEZ         LGT SNOW  24  20  84 VRB5      29.64F VSB 1   WCI  18  
PAGOSA SPRINGS LGT SNOW  18  18  98 CALM      29.66S VSB 1            
TELLURIDE      LGT SNOW  16  12  86 CALM      29.56S                  
WOLF CREEK PAS CLOUDY     3   1  92 S16G28    29.55F WCI -16          
$$

COZ009-010-012-014-032>034-037-058>063-211200-
...CENTRAL COLORADO...
  
CITY           SKY/WX    TMP DP  RH WIND       PRES   REMARKS
ASPEN          CLOUDY     8   1  73 CALM      29.56F                  
BUENA VISTA    CLOUDY    10   5  78 CALM      29.64F                  
COPPER MTN     CLOUDY     7  -4  61 S16       29.48S WCI -11          
BERTHOUD PASS  FAIR      -2 -13  60 S17       29.48S WCI -24          
COTTONWOOD PAS LGT SNOW   9   5  85 CALM      29.57F                  
GUNNISON       FAIR       7   0  73 NE7       29.63F WCI  -5          
GRANBY         FAIR     -10 -13  84 CALM      29.63F                  
KREMMLING      CLOUDY    -4  -8  84 CALM      29.67F                  
LEADVILLE      CLOUDY     1  -3  83 NE3       29.54F FOG              
MONARCH PASS     N/A      3   0  85 MISG      29.60S                  
SALIDA         CLOUDY    17   9  69 S5        29.72F WCI  10          
SUNLIGHT       LGT SNOW   5   1  85 SE9       29.53F WCI  -9          
WILKERSON PASS FAIR       1  -4  78 SW6       29.55S WCI -10          
$$

COZ069>075-211200-
...SAN LUIS VALLEY/SANGRE DE CRISTO MOUNTAINS...
  
CITY           SKY/WX    TMP DP  RH WIND       PRES   REMARKS
ALAMOSA        FAIR       9   4  80 NW8       29.66S WCI  -3          
DEL NORTE      CLOUDY    10   6  84 CALM      29.65S                  
LA VETA PASS   NOT AVBL                                               
SAGUACHE       MOCLDY     5   1  85 CALM      29.66F                  
$$

COZ035-036-038>040-211200-
...NORTHERN COLORADO FRONT RANGE...
  
CITY           SKY/WX    TMP DP  RH WIND       PRES   REMARKS
DENVER INTL AP FAIR      14   7  73 NW12      29.70F WCI   0          
AURORA         PTCLDY    13   9  84 W8        29.71S WCI   1          
FRONT RANGE AP NOT AVBL                                               
ERIE MUNI ARPT FAIR      15   5  64 CALM      29.80S                  
BOULDER MUN AP FAIR      18   5  57 CALM      29.73S                  
CENTENNIAL     FAIR      14   7  73 W7        29.70S WCI   4          
BROOMFIELD     FAIR      18   3  53 N10       29.72R WCI   6          
FORT COLLINS   FAIR      13   5  70 N8        29.76S WCI   2          
LONGMONT       FAIR      19   4  53 N6        29.76F WCI  10          
$$

COZ041-046-047-076>085-087-088-211200-
...PIKES PEAK/PALMER DIVIDE AND SOUTHERN FOOTHILLS...
  
CITY           SKY/WX    TMP DP  RH WIND       PRES   REMARKS
COLO. SPRINGS  MOCLDY    12   6  77 NE5       29.68S WCI   4          
A. F. ACADEMY  FAIR       6   1  79 N7        29.65S WCI  -6          
SCHRIEVER AFB  NOT AVBL                                               
CHEYENNE MTN   FAIR      17   6  62 CALM      29.59S                  
ELLICOTT         N/A    N/A N/A N/A E9          N/A                   
FALCON         FAIR      12   5  71 CALM      29.66S                  
FORT CARSON    FAIR      13   6  73 N9        29.67S WCI   1          
LIMON          FAIR      14  10  84 CALM      29.72S                  
MONUMENT HILL  FAIR      10   3  72 W7        29.66S WCI   0          
CANON CITY     NOT AVBL                                               
WALSENBURG     NOT AVBL                                               
TRINIDAD       FAIR      14   8  77 NW7       29.67F WCI   4          
$$

COZ042>045-048>051-090-091-211200-
...NORTHEAST COLORADO...
  
CITY           SKY/WX    TMP DP  RH WIND       PRES   REMARKS
GREELEY ARPT   MOCLDY    12   4  70 N8        29.77S WCI   0          
AKRON          FAIR      17   6  62 E10       29.78R WCI   5          
BURLINGTON     FAIR      18  13  80 SE12      29.78F WCI   5          
WRAY           FAIR      12   7  79 CALM      29.85F                  
YUMA           FAIR      12   5  73 E5        29.82S WCI   4          
STERLING       FAIR      10   5  79 N5        29.82R WCI   2          
HOLYOKE        FAIR       7   1  78 CALM      29.86R                  
FORT MORGAN      N/A     18   3  50 E13       29.79R WCI   5          
$$

COZ086-089-092>099-211200-
...SOUTHEAST COLORADO...
  
CITY           SKY/WX    TMP DP  RH WIND       PRES   REMARKS
PUEBLO         FAIR      15  10  80 CALM      29.72S                  
LA JUNTA       FAIR      16  13  88 N3        29.72F                  
LAMAR          FAIR      18  14  84 E10       29.73F WCI   6          
SPRINGFIELD      N/A     12   9  87 SW6       29.73S WCI   3          
$$